| time (UTC) | temp F | wind direction | speed MPH | gust MPH | rain 1hr in | rain 24hr in | rain mn in | humidity % | barometer mb |
| 20260901220030 | 83 | 321 | 3.0 | 6.0 | 0.00 | 0.00 | 0.00 | 29 | 1004.5 |
| 20260901214513 | 83 | 349 | 3.0 | 5.0 | 0.00 | 0.00 | 0.00 | 30 | 1004.7 |
| 20260901213013 | 81 | 212 | 2.0 | 6.0 | 0.00 | 0.00 | 0.00 | 32 | 1004.8 |
| 20260901211509 | 81 | 252 | 2.0 | 8.0 | 0.00 | 0.00 | 0.00 | 34 | 1005.1 |
| 20260901210011 | 81 | 319 | 2.0 | 6.0 | 0.00 | 0.00 | 0.00 | 32 | 1005.2 |
| 20260901204504 | 81 | 210 | 3.0 | 5.0 | 0.00 | 0.00 | 0.00 | 31 | 1005.5 |
| 20260901203004 | 80 | 274 | 1.0 | 5.0 | 0.00 | 0.00 | 0.00 | 32 | 1005.6 |
| 20260901201600 | 80 | 350 | 0.0 | 5.0 | 0.00 | 0.00 | 0.00 | 34 | 1005.8 |
| 20260901200055 | 79 | 340 | 1.0 | 4.0 | 0.00 | 0.00 | 0.00 | 33 | 1005.9 |
| 20260901194552 | 79 | 325 | 0.0 | 3.0 | 0.00 | 0.00 | 0.00 | 34 | 1006.2 |
| 20260901193049 | 78 | 96 | 0.0 | 2.0 | 0.00 | 0.00 | 0.00 | 38 | 1006.4 |
| 20260901191547 | 77 | 47 | 0.0 | 3.0 | 0.00 | 0.00 | 0.00 | 40 | 1006.5 |
| 20260901190144 | 75 | 86 | 1.0 | 3.0 | 0.00 | 0.00 | 0.00 | 42 | 1006.7 |
| 20260901184548 | 75 | 101 | 2.0 | 4.0 | 0.00 | 0.00 | 0.00 | 45 | 1006.8 |
| 20260901183040 | 75 | 113 | 2.0 | 5.0 | 0.00 | 0.00 | 0.00 | 40 | 1006.8 |
| 20260901181538 | 74 | 98 | 2.0 | 4.0 | 0.00 | 0.00 | 0.00 | 45 | 1006.9 |
| 20260901180037 | 73 | 108 | 0.0 | 5.0 | 0.00 | 0.00 | 0.00 | 42 | 1007.1 |
| 20260901174531 | 73 | 111 | 0.0 | 2.0 | 0.00 | 0.00 | 0.00 | 41 | 1007.2 |
| 20260901173029 | 72 | 159 | 0.0 | 2.0 | 0.00 | 0.00 | 0.00 | 41 | 1007.3 |
| 20260901171628 | 72 | 184 | 0.0 | 3.0 | 0.00 | 0.00 | 0.00 | 40 | 1007.2 |
| 20260901170026 | 71 | 229 | 0.0 | 5.0 | 0.00 | 0.00 | 0.00 | 41 | 1007.3 |
| 20260901164522 | 70 | 118 | 0.0 | 3.0 | 0.00 | 0.00 | 0.00 | 46 | 1007.3 |
| 20260901163017 | 67 | 94 | 0.0 | 3.0 | 0.00 | 0.00 | 0.00 | 56 | 1007.4 |
| 20260901161513 | 64 | 63 | 1.0 | 2.0 | 0.00 | 0.00 | 0.00 | 59 | 1007.6 |
| 20260901160011 | 61 | 100 | 0.0 | 2.0 | 0.00 | 0.00 | 0.00 | 62 | 1007.6 |
| 20260901154508 | 61 | 94 | 0.0 | 2.0 | 0.00 | 0.00 | 0.00 | 60 | 1007.6 |
| 20260901153107 | 60 | 98 | 0.0 | 3.0 | 0.00 | 0.00 | 0.00 | 62 | 1007.8 |
| 20260901151507 | 60 | 86 | 0.0 | 4.0 | 0.00 | 0.00 | 0.00 | 60 | 1007.8 |
| 20260901150011 | 60 | 115 | 2.0 | 4.0 | 0.00 | 0.00 | 0.00 | 59 | 1007.6 |
| 20260901144505 | 59 | 112 | 1.0 | 4.0 | 0.00 | 0.00 | 0.00 | 61 | 1007.6 |
| 20260901143005 | 58 | 94 | 1.0 | 2.0 | 0.00 | 0.00 | 0.00 | 65 | 1007.4 |
| 20260901141504 | 56 | 108 | 0.0 | 1.0 | 0.00 | 0.00 | 0.00 | 68 | 1007.3 |
| 20260901140004 | 55 | 108 | 0.0 | 2.0 | 0.00 | 0.00 | 0.00 | 69 | 1007.3 |
| 20260901134628 | 55 | 105 | 0.0 | 1.0 | 0.00 | 0.00 | 0.00 | 72 | 1007.2 |
| 20260901133002 | 55 | 105 | 0.0 | 0.0 | 0.00 | 0.00 | 0.00 | 71 | 1007.2 |
| 20260901131501 | 54 | 105 | 0.0 | 0.0 | 0.00 | 0.00 | 0.00 | 69 | 1007.2 |
| 20260901130000 | 55 | 105 | 0.0 | 3.0 | 0.00 | 0.00 | 0.00 | 69 | 1007.2 |
| 20260901124602 | 54 | 105 | 0.0 | 1.0 | 0.00 | 0.00 | 0.00 | 70 | 1007.2 |
| 20260901123057 | 55 | 103 | 0.0 | 1.0 | 0.00 | 0.00 | 0.00 | 68 | 1007.1 |
| 20260901121605 | 55 | 103 | 0.0 | 1.0 | 0.00 | 0.00 | 0.00 | 68 | 1007.2 |
| 20260901120053 | 56 | 103 | 0.0 | 0.0 | 0.00 | 0.00 | 0.00 | 67 | 1007.4 |
| 20260901114559 | 56 | 103 | 0.0 | 1.0 | 0.00 | 0.00 | 0.00 | 67 | 1007.5 |
| 20260901113051 | 56 | 103 | 0.0 | 1.0 | 0.00 | 0.00 | 0.00 | 66 | 1007.5 |
| 20260901111549 | 56 | 103 | 0.0 | 0.0 | 0.00 | 0.00 | 0.00 | 67 | 1007.6 |
| 20260901110053 | 58 | 103 | 0.0 | 1.0 | 0.00 | 0.00 | 0.00 | 63 | 1007.5 |
| 20260901104546 | 57 | 103 | 0.0 | 2.0 | 0.00 | 0.00 | 0.00 | 63 | 1007.6 |
| 20260901103044 | 58 | 115 | 0.0 | 1.0 | 0.00 | 0.00 | 0.00 | 64 | 1007.7 |
| 20260901101545 | 58 | 115 | 0.0 | 3.0 | 0.00 | 0.00 | 0.00 | 61 | 1007.8 |
| 20260901100046 | 58 | 103 | 0.0 | 2.0 | 0.00 | 0.00 | 0.00 | 63 | 1007.8 |
| 20260901094542 | 58 | 117 | 0.0 | 0.0 | 0.00 | 0.00 | 0.00 | 63 | 1007.9 |
| 20260901093041 | 58 | 117 | 0.0 | 1.0 | 0.00 | 0.00 | 0.00 | 64 | 1008.0 |
| 20260901091548 | 58 | 117 | 0.0 | 1.0 | 0.00 | 0.00 | 0.00 | 63 | 1008.0 |
| 20260901090039 | 58 | 117 | 0.0 | 1.0 | 0.00 | 0.00 | 0.00 | 62 | 1007.9 |
| 20260901084538 | 58 | 117 | 0.0 | 0.0 | 0.00 | 0.00 | 0.00 | 62 | 1007.9 |
| 20260901083036 | 58 | 117 | 0.0 | 1.0 | 0.00 | 0.00 | 0.00 | 63 | 1008.0 |
| 20260901081540 | 57 | 84 | 0.0 | 0.0 | 0.00 | 0.00 | 0.00 | 65 | 1008.1 |
| 20260901080034 | 58 | 84 | 0.0 | 1.0 | 0.00 | 0.00 | 0.00 | 64 | 1008.0 |
| 20260901074532 | 58 | 84 | 0.0 | 2.0 | 0.00 | 0.00 | 0.00 | 64 | 1008.2 |
| 20260901073030 | 58 | 112 | 0.0 | 0.0 | 0.00 | 0.00 | 0.00 | 65 | 1008.2 |
| 20260901071527 | 60 | 112 | 0.0 | 0.0 | 0.00 | 0.00 | 0.00 | 61 | 1008.2 |
| 20260901070022 | 61 | 111 | 0.0 | 0.0 | 0.00 | 0.00 | 0.00 | 58 | 1008.4 |
| 20260901064524 | 62 | 111 | 0.0 | 1.0 | 0.00 | 0.00 | 0.00 | 56 | 1008.6 |
| 20260901063029 | 62 | 111 | 0.0 | 1.0 | 0.00 | 0.00 | 0.00 | 57 | 1008.7 |
| 20260901061520 | 62 | 110 | 0.0 | 2.0 | 0.00 | 0.00 | 0.00 | 57 | 1008.5 |
| 20260901060019 | 63 | 110 | 0.0 | 1.0 | 0.00 | 0.00 | 0.00 | 56 | 1008.6 |
| 20260901054530 | 63 | 110 | 0.0 | 0.0 | 0.00 | 0.00 | 0.00 | 56 | 1008.5 |
| 20260901053019 | 64 | 110 | 0.0 | 0.0 | 0.00 | 0.00 | 0.00 | 55 | 1008.7 |
| 20260901051517 | 64 | 110 | 0.0 | 2.0 | 0.00 | 0.00 | 0.00 | 56 | 1008.7 |
| 20260901050017 | 64 | 58 | 0.0 | 1.0 | 0.00 | 0.00 | 0.00 | 58 | 1008.8 |
| 20260901044516 | 64 | 58 | 0.0 | 0.0 | 0.00 | 0.00 | 0.00 | 60 | 1008.9 |
| 20260901043019 | 66 | 58 | 0.0 | 1.0 | 0.00 | 0.00 | 0.00 | 58 | 1008.9 |
| 20260901041516 | 68 | 98 | 0.0 | 1.0 | 0.00 | 0.00 | 0.00 | 55 | 1008.7 |
| 20260901040014 | 70 | 98 | 0.0 | 1.0 | 0.00 | 0.00 | 0.00 | 51 | 1008.6 |
| 20260901034521 | 70 | 98 | 0.0 | 1.0 | 0.00 | 0.00 | 0.00 | 50 | 1008.5 |
| 20260901033016 | 70 | 98 | 0.0 | 2.0 | 0.00 | 0.00 | 0.00 | 49 | 1008.3 |
| 20260901031522 | 71 | 71 | 0.0 | 1.0 | 0.00 | 0.00 | 0.00 | 48 | 1008.2 |
| 20260901030011 | 73 | 71 | 0.0 | 0.0 | 0.00 | 0.00 | 0.00 | 43 | 1008.0 |
| 20260901024511 | 77 | 70 | 0.0 | 0.0 | 0.00 | 0.00 | 0.00 | 38 | 1008.0 |
| 20260901023018 | 80 | 71 | 0.0 | 0.0 | 0.00 | 0.00 | 0.00 | 33 | 1007.9 |
| 20260901021509 | 83 | 71 | 0.0 | 1.0 | 0.00 | 0.00 | 0.00 | 30 | 1007.8 |
| 20260901020008 | 83 | 70 | 0.0 | 2.0 | 0.00 | 0.00 | 0.00 | 29 | 1008.0 |
| 20260901014506 | 84 | 108 | 0.0 | 2.0 | 0.00 | 0.00 | 0.00 | 27 | 1008.1 |
| 20260901013009 | 84 | 333 | 0.0 | 3.0 | 0.00 | 0.00 | 0.00 | 28 | 1008.3 |
| 20260901011502 | 86 | 46 | 0.0 | 2.0 | 0.00 | 0.00 | 0.00 | 26 | 1008.5 |
| 20260901010059 | 85 | 153 | 0.0 | 1.0 | 0.00 | 0.00 | 0.00 | 27 | 1008.5 |
| 20260901004601 | 84 | 203 | 0.0 | 2.0 | 0.00 | 0.00 | 0.00 | 28 | 1008.8 |
| 20260901003055 | 84 | 61 | 2.0 | 5.0 | 0.00 | 0.00 | 0.00 | 27 | 1008.9 |
| 20260901001553 | 83 | 251 | 0.0 | 4.0 | 0.00 | 0.00 | 0.00 | 28 | 1009.1 |
| 20260901000051 | 83 | 57 | 2.0 | 5.0 | 0.00 | 0.00 | 0.00 | 27 | 1009.3 |
| 20260831234555 | 83 | 106 | 0.0 | 3.0 | 0.00 | 0.00 | 0.00 | 27 | 1009.4 |
| 20260831233046 | 82 | 288 | 2.0 | 4.0 | 0.00 | 0.00 | 0.00 | 27 | 1009.7 |
| 20260831231544 | 82 | 195 | 2.0 | 5.0 | 0.00 | 0.00 | 0.00 | 28 | 1009.9 |
| 20260831230044 | 82 | 325 | 2.0 | 8.0 | 0.00 | 0.00 | 0.00 | 28 | 1010.1 |
| 20260831224540 | 82 | 69 | 2.0 | 5.0 | 0.00 | 0.00 | 0.00 | 28 | 1010.2 |
| 20260831223042 | 81 | 163 | 2.0 | 5.0 | 0.00 | 0.00 | 0.00 | 31 | 1010.4 |
| 20260831221534 | 82 | 225 | 2.0 | 4.0 | 0.00 | 0.00 | 0.00 | 30 | 1010.6 |